Gastonia, NC

2:05 AM EST on February 13, 2016 (GMT -0500)
Gastonia Municipal

Weather History for KAKH - February, 2014

Change the Weather History Date:

Wednesday, February 12, 2014

  Actual Average (KCLT) Record (KCLT)
Temperature  
Mean Temperature 26 °F 43 °F  
Max Temperature 30 °F 54 °F 73 °F (1999)
Min Temperature 23 °F 32 °F 11 °F (1899)
Degree Days  
Heating Degree Days 38 22  
Month to date heating degree days 273  
Since 1 July heating degree days 2380  
Cooling Degree Days 0 0  
Month to date cooling degree days 0  
Year to date cooling degree days 0  
Moisture  
Dew Point 21 °F    
Average Humidity 83    
Maximum Humidity 93    
Minimum Humidity 56    
Precipitation  
Precipitation 0.71 in 0.11 in 1.65 in (1948)
Month to date precipitation 1.30  
Year to date precipitation 4.71  
Snow  
Snow 0.00 in 0.00 in 5.10 in (1899)
Month to date snowfall 0.5  
Since 1 July snowfall 3.0  
Snow Depth -    
Sea Level Pressure  
Sea Level Pressure 30.13 in    
Wind  
Wind Speed 11 mph (NNE)    
Max Wind Speed 20 mph    
Max Gust Speed 28 mph    
Visibility 2 miles    
Events Fog , Rain , Snow    
T = Trace of Precipitation, MM = Missing Value Source: NWS Daily Summary

Daily Weather History Graph

Daily Weather History Graph

Search for Another Location

Airport or City:

Trip Planner

Search our weather history database for the weather conditions in past years. The results will help you decide how hot, cold, wet, or windy it might be!

Date:

Astronomy

Feb. 12, 2014 Rise Set
Actual Time 7:13 AM EST 6:04 PM EST
Civil Twilight 6:47 AM EST 6:30 PM EST
Nautical Twilight 6:18 AM EST 7:00 PM EST
Astronomical Twilight 5:48 AM EST 7:29 PM EST
Moon 4:18 PM EST (2/12) 5:27 AM EST (2/12)
Length of Visible Light 11h 42m
Length of Day
10h 50m
Waxing Gibbous, 95% of the Moon is Illuminated
Feb 12
Waxing Gibbous
Feb 14
Full
Feb 22
Last Quarter
Mar 1
New
Mar 8
First Quarter

Hourly Weather History & Observations

Time (EST) Temp. Windchill Dew Point Humidity Pressure Visibility Wind Dir Wind Speed Gust Speed Precip Events Conditions
12:54 AM 30.0 °F 23.2 °F 27.0 °F 88% 30.35 in 4.0 mi NE 6.9 mph - N/A   Scattered Clouds
1:27 AM 28.4 °F 24.6 °F 26.6 °F 93% 30.34 in 4.0 mi ENE 3.5 mph - N/A   Scattered Clouds
1:40 AM 30.2 °F 23.4 °F 26.6 °F 86% 30.34 in 4.0 mi NE 6.9 mph - N/A   Mostly Cloudy
1:54 AM 30.0 °F 24.1 °F 27.0 °F 88% 30.36 in 3.0 mi NNE 5.8 mph - N/A   Overcast
2:04 AM 30.2 °F 24.3 °F 28.4 °F 93% 30.34 in 3.0 mi NNE 5.8 mph - N/A   Overcast
2:54 AM 28.9 °F 20.4 °F 23.0 °F 78% 30.36 in 8.0 mi NE 9.2 mph - N/A   Overcast
3:54 AM 28.9 °F 20.4 °F 19.0 °F 67% 30.35 in 10.0 mi NE 9.2 mph 18.4 mph N/A   Overcast
4:54 AM 28.0 °F 20.0 °F 19.0 °F 69% 30.35 in 10.0 mi NE 8.1 mph - N/A   Overcast
5:54 AM 28.0 °F 18.6 °F 17.1 °F 63% 30.34 in 10.0 mi NE 10.4 mph - N/A   Overcast
6:54 AM 28.0 °F 19.3 °F 17.1 °F 63% 30.35 in 10.0 mi NNE 9.2 mph - N/A   Overcast
7:54 AM 28.0 °F 19.3 °F 17.1 °F 63% 30.37 in 10.0 mi NNE 9.2 mph - N/A   Overcast
8:54 AM 28.0 °F 19.3 °F 14.0 °F 56% 30.39 in 10.0 mi NE 9.2 mph - N/A   Overcast
9:48 AM 26.6 °F 15.7 °F 15.8 °F 64% 30.35 in 2.0 mi NE 12.7 mph 19.6 mph 0.00 in Snow Light Snow
9:54 AM 27.0 °F 16.7 °F 17.1 °F 66% 30.38 in 1.2 mi ENE 11.5 mph - 0.00 in Snow Light Snow
10:19 AM 26.6 °F 15.2 °F 19.4 °F 74% 30.32 in 0.8 mi NE 13.8 mph - 0.00 in Snow Light Snow
10:54 AM 25.0 °F 14.2 °F 21.0 °F 85% 30.32 in 0.8 mi NE 11.5 mph - 0.01 in Snow Light Snow
11:01 AM 26.6 °F 14.7 °F 21.2 °F 80% 30.29 in 1.0 mi NNE 15.0 mph - 0.00 in Snow Light Snow
11:12 AM 24.8 °F 14.0 °F 21.2 °F 86% 30.28 in 0.8 mi NE 11.5 mph - 0.00 in Snow Light Snow
11:54 AM 26.1 °F 16.8 °F 21.0 °F 81% 30.31 in 0.8 mi NE 9.2 mph - 0.01 in Snow Light Snow
12:21 PM 24.8 °F 13.4 °F 21.2 °F 86% 30.26 in 1.2 mi NE 12.7 mph - 0.01 in Snow Light Snow
12:41 PM 24.8 °F 11.9 °F 21.2 °F 86% 30.25 in 0.5 mi NE 16.1 mph - 0.01 in Fog , Snow Snow
12:47 PM 24.8 °F 13.4 °F 21.2 °F 86% 30.24 in 0.2 mi NE 12.7 mph 19.6 mph 0.02 in Fog , Snow Snow
12:54 PM 25.0 °F 13.1 °F 21.0 °F 85% 30.26 in 0.2 mi NE 13.8 mph 19.6 mph 0.02 in Fog , Snow Snow
1:05 PM 24.8 °F 12.4 °F 21.2 °F 86% 30.22 in 0.2 mi NNE 15.0 mph 18.4 mph 0.01 in Fog , Snow Snow
1:21 PM 24.8 °F 11.1 °F 21.2 °F 86% 30.21 in 0.2 mi NNE 18.4 mph 23.0 mph 0.02 in Fog , Snow Heavy Snow
1:54 PM 24.1 °F 11.0 °F 21.0 °F 88% 30.21 in 0.2 mi NE 16.1 mph 24.2 mph 0.06 in Fog , Snow Snow
1:57 PM 24.8 °F 11.5 °F 21.2 °F 86% 30.18 in 0.5 mi NE 17.3 mph - 0.00 in Fog , Snow Snow
2:15 PM 24.8 °F 13.4 °F 21.2 °F 86% 30.17 in 1.2 mi NE 12.7 mph 24.2 mph 0.03 in Snow Light Snow
2:42 PM 24.8 °F 11.5 °F 21.2 °F 86% 30.13 in 1.2 mi NNE 17.3 mph 23.0 mph 0.06 in Snow Light Snow
2:51 PM 24.8 °F 11.9 °F 19.4 °F 80% 30.12 in 2.0 mi NE 16.1 mph 27.6 mph 0.06 in Snow Light Snow
2:54 PM 25.0 °F 11.7 °F 19.9 °F 81% 30.15 in 2.0 mi NNE 17.3 mph 27.6 mph 0.07 in   Overcast
3:11 PM 24.8 °F 11.9 °F 21.2 °F 86% 30.11 in 2.5 mi NNE 16.1 mph 21.9 mph 0.00 in   Overcast
3:25 PM 24.8 °F 10.7 °F 21.2 °F 86% 30.10 in 1.8 mi NNE 19.6 mph 23.0 mph 0.02 in   Overcast
3:36 PM 24.8 °F 11.9 °F 21.2 °F 86% 30.09 in 2.0 mi NNE 16.1 mph 21.9 mph 0.02 in   Overcast
3:45 PM 24.8 °F 11.9 °F 19.4 °F 80% 30.07 in 2.0 mi NNE 16.1 mph 25.3 mph 0.03 in   Overcast
3:54 PM 24.1 °F 10.1 °F 19.9 °F 84% 30.09 in 2.5 mi NNE 18.4 mph 23.0 mph 0.03 in   Overcast
4:22 PM 24.8 °F 12.9 °F 19.4 °F 80% 30.05 in 1.5 mi NNE 13.8 mph 24.2 mph 0.01 in   Overcast
4:54 PM 24.1 °F 11.0 °F 19.9 °F 84% 30.07 in 1.2 mi NNE 16.1 mph - 0.03 in   Overcast
5:07 PM 24.8 °F 13.4 °F 19.4 °F 80% 30.03 in 0.8 mi NNE 12.7 mph 20.7 mph 0.01 in   Overcast
5:30 PM 23.0 °F 10.6 °F 19.4 °F 86% 30.02 in 1.0 mi NNE 13.8 mph 21.9 mph 0.01 in   Overcast
5:54 PM 24.1 °F 11.5 °F 19.9 °F 84% 30.04 in 1.2 mi NNE 15.0 mph 21.9 mph 0.02 in   Overcast
6:11 PM 24.8 °F 11.9 °F 19.4 °F 80% 30.01 in 1.8 mi NNE 16.1 mph 23.0 mph 0.00 in Rain Light Freezing Rain
6:18 PM 24.8 °F 12.4 °F 19.4 °F 80% 30.00 in 1.8 mi NNE 15.0 mph 24.2 mph 0.01 in Snow Light Snow
6:49 PM 24.8 °F 11.9 °F 21.2 °F 86% 29.98 in 2.0 mi NNE 16.1 mph 21.9 mph 0.01 in Snow Light Snow
6:54 PM 24.1 °F 11.5 °F 21.0 °F 88% 30.01 in 2.0 mi NNE 15.0 mph 21.9 mph 0.01 in   Overcast
7:12 PM 24.8 °F 12.4 °F 21.2 °F 86% 29.96 in 1.8 mi NNE 15.0 mph - 0.00 in Snow Light Snow
7:54 PM 24.1 °F 13.1 °F 21.0 °F 88% 29.98 in 1.2 mi NNE 11.5 mph - 0.03 in Snow Light Snow
8:20 PM 24.8 °F 14.0 °F 21.2 °F 86% 29.94 in 1.5 mi NE 11.5 mph - 0.01 in Snow Light Snow
8:47 PM 24.8 °F 14.0 °F 21.2 °F 86% 29.92 in 2.5 mi NE 11.5 mph 20.7 mph 0.04 in   Overcast
8:54 PM 25.0 °F 13.6 °F 21.9 °F 88% 29.95 in 2.5 mi NNE 12.7 mph 20.7 mph 0.04 in   Overcast
9:05 PM 24.8 °F 12.9 °F 23.0 °F 93% 29.92 in 1.2 mi NNE 13.8 mph - 0.02 in   Overcast
9:45 PM 26.6 °F 14.7 °F 24.8 °F 93% 29.88 in 1.5 mi NNE 15.0 mph - 0.15 in Rain Light Freezing Rain
9:54 PM 26.1 °F 15.6 °F 24.1 °F 92% 29.90 in 1.8 mi NNE 11.5 mph - 0.18 in Rain Light Freezing Rain
10:02 PM 26.6 °F 15.2 °F 24.8 °F 93% 29.86 in 1.8 mi NNE 13.8 mph - 0.02 in   Overcast
10:14 PM 26.6 °F 15.7 °F 24.8 °F 93% 29.86 in 1.8 mi NNE 12.7 mph 21.9 mph 0.06 in Rain Light Freezing Rain
10:24 PM 26.6 °F 17.5 °F 24.8 °F 93% 29.86 in 1.5 mi North 9.2 mph - 0.08 in   Overcast
10:47 PM 26.6 °F 18.2 °F 24.8 °F 93% 29.85 in 1.2 mi North 8.1 mph - 0.13 in   Overcast
10:54 PM 27.0 °F 18.0 °F 25.0 °F 92% 29.87 in 1.0 mi NNE 9.2 mph - 0.14 in   Overcast
11:09 PM 26.6 °F 18.2 °F 24.8 °F 93% 29.84 in 1.2 mi NNE 8.1 mph 18.4 mph 0.02 in   Overcast
11:31 PM 26.6 °F 17.5 °F 24.8 °F 93% 29.81 in 2.0 mi North 9.2 mph - 0.04 in   Overcast
11:54 PM 27.0 °F 16.7 °F 24.1 °F 89% 29.83 in 2.0 mi NNE 11.5 mph - 0.06 in Snow Light Snow